This is the latest recevied weather packets stored in our database for station/object K9MJM-1. If no packets are shown the sender has not sent any weather packets the latest 1 day(s).
| Time | Temp. | Humidity | Pressure | Rain* | Wind** | Luminosity | Snow |
|---|---|---|---|---|---|---|---|
| 1778062359 | 12.78° C | 80% | 1016.1 hPa | 0 mm | 0 m/s | - | - |
| 1778062239 | 12.78° C | 81% | 1016 hPa | 0 mm | 0.45 m/s, 102° | - | - |
| 1778062179 | 12.78° C | 81% | 1016 hPa | 0 mm | 0.45 m/s, 102° | - | - |
| 1778062119 | 12.78° C | 81% | 1016 hPa | 0 mm | 0.45 m/s, 102° | - | - |
| 1778061999 | 12.78° C | 81% | 1016 hPa | 0 mm | 0.45 m/s, 102° | - | - |
| 1778061939 | 12.78° C | 82% | 1015.8 hPa | 0 mm | 0 m/s | - | - |
| 1778061819 | 12.78° C | 82% | 1015.8 hPa | 0 mm | 0 m/s | - | - |
| 1778061759 | 12.78° C | 82% | 1015.8 hPa | 0 mm | 0 m/s | - | - |
| 1778061639 | 12.78° C | 81% | 1015.9 hPa | 0 mm | 0 m/s | - | - |
| 1778061399 | 12.78° C | 81% | 1015.9 hPa | 0 mm | 0 m/s | - | - |
| 1778061339 | 12.78° C | 80% | 1016.1 hPa | 0 mm | 0.45 m/s, 78° | - | - |
| 1778060859 | 12.78° C | 80% | 1015.9 hPa | 0 mm | 0.89 m/s, 106° | - | - |
| 1778060799 | 12.78° C | 80% | 1015.9 hPa | 0 mm | 0.89 m/s, 106° | - | - |
| 1778060619 | 13.33° C | 79% | 1016.1 hPa | 0 mm | 0 m/s | - | - |
| 1778060319 | 12.78° C | 79% | 1015.9 hPa | 0 mm | 0.45 m/s, 89° | - | - |
| 1778060259 | 12.78° C | 79% | 1015.9 hPa | 0 mm | 0.45 m/s, 89° | - | - |
| 1778060079 | 12.78° C | 79% | 1015.7 hPa | 0 mm | 0 m/s | - | - |
| 1778059839 | 12.78° C | 80% | 1015.9 hPa | 0 mm | 0.89 m/s, 108° | - | - |
| 1778059779 | 12.78° C | 80% | 1015.9 hPa | 0 mm | 0.89 m/s, 108° | - | - |
| 1778059719 | 12.78° C | 80% | 1015.9 hPa | 0 mm | 0.89 m/s, 108° | - | - |
| 1778059659 | 12.78° C | 80% | 1015.9 hPa | 0 mm | 0.89 m/s, 108° | - | - |
| 1778059539 | 12.22° C | 80% | 1016.4 hPa | 0 mm | 0 m/s | - | - |
| 1778059479 | 12.22° C | 80% | 1016.4 hPa | 0 mm | 0 m/s | - | - |
| 1778059359 | 12.22° C | 80% | 1016.4 hPa | 0 mm | 0 m/s | - | - |
| 1778059239 | 12.22° C | 84% | 1016 hPa | 0 mm | 0 m/s | - | - |
* Rain latest hour (hover to see other rain measurements)
** Current wind speed in m/s (hover to see current wind gust speed)